FW4325 Weather Reports


Display with metric or nautical units.
time (UTC)temp
F
wind
direction
speed
MPH
gust
MPH
rain 1hr
in
rain 24hr
in
rain mn
in
humidity
%
barometer
mb
20260505041555 76 43 2.0 4.0 0.00 0.01 0.00 90 1018.0
20260505041544 76 43 2.0 4.0 0.00 0.01 0.00 89 1017.0
20260505040041 76 43 1.0 4.0 0.00 0.01 0.00 89 1017.1
20260505034539 77 40 2.0 5.0 0.00 0.01 0.01 89 1018.2
20260505034537 77 40 3.0 5.0 0.00 0.01 0.01 88 1017.2
20260505033039 77 40 2.0 4.0 0.00 0.01 0.01 89 1018.4
20260505033037 77 40 1.0 4.0 0.00 0.01 0.01 89 1017.3
20260505031548 77 37 1.0 4.0 0.00 0.01 0.01 89 1018.4
20260505031539 77 37 1.0 4.0 0.00 0.01 0.01 89 1017.3
20260505030051 77 47 2.0 4.0 0.00 0.01 0.01 89 1017.3
20260505030038 77 47 2.0 4.0 0.00 0.01 0.01 89 1018.4
20260505024541 77 49 2.0 5.0 0.00 0.01 0.01 89 1018.4
20260505024537 77 55 2.0 5.0 0.00 0.01 0.01 88 1017.3
20260505023036 77 39 2.0 4.0 0.00 0.01 0.01 89 1017.3
20260505021544 77 49 2.0 4.0 0.00 0.01 0.01 88 1017.2
20260505021536 77 38 2.0 4.0 0.00 0.01 0.01 89 1018.1
20260505020049 77 52 2.0 4.0 0.00 0.01 0.01 88 1017.0
20260505020035 77 52 2.0 4.0 0.00 0.01 0.01 89 1018.0
20260505014537 77 23 2.0 4.0 0.00 0.01 0.01 88 1018.1
20260505014535 77 38 2.0 4.0 0.00 0.01 0.01 87 1016.9
20260505013037 77 53 2.0 5.0 0.00 0.01 0.01 87 1016.8
20260505013031 78 53 3.0 5.0 0.00 0.01 0.01 88 1018.0
20260505011631 78 26 2.0 5.0 0.00 0.01 0.01 88 1017.8
20260505011536 78 42 2.0 4.0 0.00 0.01 0.01 87 1016.6
20260505010057 78 42 2.0 5.0 0.00 0.01 0.01 87 1016.5
20260505010030 78 42 2.0 5.0 0.00 0.01 0.01 87 1017.8
20260505004543 79 40 1.0 4.0 0.00 0.01 0.01 87 1017.6
20260505004535 78 32 2.0 4.0 0.00 0.01 0.01 86 1016.4
20260505003046 79 56 2.0 4.0 0.00 0.01 0.01 86 1016.3
20260505003029 79 56 2.0 4.0 0.00 0.01 0.01 86 1017.5
20260505001539 80 64 2.0 4.0 0.00 0.01 0.01 86 1016.3
20260505001528 80 63 2.0 5.0 0.00 0.01 0.01 86 1017.4
20260505000043 81 44 2.0 4.0 0.00 0.01 0.01 85 1016.4
20260505000041 81 44 2.0 4.0 0.00 0.01 0.01 86 1017.4
20260504234534 81 0 2.0 6.0 0.00 0.01 0.01 85 1016.3
20260504234528 81 84 1.0 6.0 0.00 0.01 0.01 86 1017.4
20260504233041 81 74 1.0 6.0 0.00 0.01 0.01 85 1016.1
20260504233026 81 74 1.0 5.0 0.00 0.01 0.01 85 1017.3
20260504231535 81 95 2.0 6.0 0.00 0.01 0.01 84 1016.0
20260504231530 81 92 2.0 4.0 0.00 0.01 0.01 84 1017.1
20260504230048 81 121 2.0 7.0 0.00 0.01 0.01 84 1015.9
20260504230025 81 121 2.0 7.0 0.00 0.01 0.01 84 1017.1
20260504224550 81 153 4.0 8.0 0.00 0.01 0.01 83 1015.9
20260504224524 81 113 5.0 8.0 0.00 0.01 0.01 84 1017.0
20260504223036 81 91 5.0 8.0 0.00 0.01 0.01 83 1015.6
20260504223024 81 91 4.0 8.0 0.00 0.01 0.01 83 1016.8
20260504221535 82 162 3.0 9.0 0.00 0.01 0.01 83 1015.5
20260504221523 82 113 3.0 9.0 0.00 0.01 0.01 84 1016.8
20260504220035 82 109 4.0 10.0 0.00 0.01 0.01 82 1015.3
20260504220022 82 98 3.0 9.0 0.00 0.01 0.01 83 1016.5
20260504214543 82 114 6.0 10.0 0.00 0.01 0.01 82 1015.2
20260504214521 82 121 7.0 10.0 0.00 0.01 0.01 83 1016.4
20260504213036 83 121 5.0 10.0 0.00 0.01 0.01 82 1015.1
20260504213020 83 109 4.0 10.0 0.00 0.01 0.01 82 1016.2
20260504211537 83 165 4.0 11.0 0.00 0.01 0.01 82 1014.9
20260504211519 83 165 6.0 11.0 0.00 0.01 0.01 82 1016.2
20260504210052 83 134 5.0 11.0 0.00 0.01 0.01 82 1014.9
20260504210022 83 121 5.0 11.0 0.00 0.01 0.01 83 1015.9
20260504204531 83 80 4.0 10.0 0.00 0.01 0.01 82 1014.9
20260504204516 83 80 5.0 10.0 0.00 0.01 0.01 83 1016.0
20260504203043 83 140 5.0 10.0 0.00 0.01 0.01 82 1014.9
20260504203014 83 134 6.0 10.0 0.00 0.01 0.01 82 1016.0
20260504201539 83 98 5.0 11.0 0.00 0.01 0.01 81 1015.0
20260504201514 83 115 5.0 11.0 0.00 0.01 0.01 82 1016.1
20260504200049 83 146 5.0 12.0 0.00 0.01 0.01 82 1015.1
20260504200011 83 163 6.0 12.0 0.00 0.01 0.01 82 1016.3
20260504194536 83 108 7.0 13.0 0.00 0.01 0.01 80 1015.2
20260504194510 83 88 7.0 13.0 0.00 0.01 0.01 81 1016.3
20260504193039 83 130 7.0 12.0 0.00 0.01 0.01 79 1015.3
20260504193008 83 109 8.0 12.0 0.00 0.01 0.01 80 1016.3
20260504191537 83 121 7.0 15.0 0.00 0.01 0.01 81 1015.4
20260504191508 83 157 6.0 15.0 0.00 0.01 0.01 81 1016.4
20260504190126 83 150 6.0 11.0 0.00 0.01 0.01 85 1016.5
20260504190039 83 178 4.0 10.0 0.00 0.01 0.01 84 1015.5
20260504184539 83 99 7.0 14.0 0.00 0.01 0.01 82 1015.7
20260504184504 83 106 7.0 13.0 0.00 0.01 0.01 83 1016.6
20260504183037 85 190 7.0 16.0 0.00 0.01 0.01 79 1015.6
20260504183002 85 182 8.0 16.0 0.00 0.01 0.01 79 1016.5
20260504181540 85 126 9.0 15.0 0.00 0.01 0.01 78 1015.7
20260504181502 85 108 9.0 14.0 0.00 0.01 0.01 79 1016.6
20260504180117 84 136 7.0 16.0 0.00 0.01 0.01 79 1016.9
20260504180039 84 89 9.0 16.0 0.00 0.01 0.01 78 1016.1
20260504174558 85 157 7.0 14.0 0.00 0.01 0.01 77 1017.4
20260504174536 85 109 8.0 15.0 0.00 0.01 0.01 77 1016.1
20260504173055 85 138 8.0 17.0 0.00 0.01 0.01 78 1017.4
20260504173035 85 123 7.0 17.0 0.00 0.01 0.01 77 1016.3
20260504171554 85 137 6.0 16.0 0.00 0.01 0.01 79 1017.5
20260504171535 85 153 6.0 18.0 0.00 0.01 0.01 78 1016.4
20260504081539 78 117 5.0 9.0 0.00 0.01 0.01 87 1015.5
20260504081522 78 117 4.0 8.0 0.00 0.01 0.01 88 1016.3